Regional Weather Roundup
Issued by NWS

Home | Current Version | Previous Version | Graphics & Text | Print | Product List | Glossary On
Versions: 1 2 3 4 5 6 7 8 9 10 11 12 13 14 15 16 17 18 19 20 21 22 23 24 25 26 27 28 29 30 31 32 33 34 35 36 37 38 39 40 41 42 43 44 45 46 47 48 49 50
000
ASUS43 KFSD 180110
RWRSD

WEATHER ROUNDUP FOR SOUTH DAKOTA
NATIONAL WEATHER SERVICE SIOUX FALLS SD
700 PM CST TUE JAN 17 2017

NOTE: "FAIR" INDICATES FEW OR NO CLOUDS BELOW 12,000 FEET WITH NO
SIGNIFICANT WEATHER AND/OR OBSTRUCTIONS TO VISIBILITY.


SDZ001>005-009-010-012>017-180200-
NORTHWEST AND NORTH CENTRAL SOUTH DAKOTA

CITY           SKY/WX    TMP DP  RH WIND       PRES   REMARKS
BUFFALO          N/A     37  20  50 W7        29.78R
FAITH            N/A     24  15  68 SW9       29.85S WCI  14
MOBRIDGE       CLOUDY    16   9  74 SE12      29.83F WCI   3
$$

SDZ012>016-024>037-041>051-057-063-072>074-180200-
SOUTHWEST AND SOUTH CENTRAL SOUTH DAKOTA

CITY           SKY/WX    TMP DP  RH WIND       PRES   REMARKS
RAPID CTY ARPT CLOUDY    31  15  52 CALM      29.89R
PIERRE         CLOUDY    23  18  81 S3        29.90S
CUSTER         CLOUDY    38  10  31 W6        29.92R
ELLSWORTH AFB  CLOUDY    36  14  41 W5        29.87S
PHILIP         CLOUDY    28  20  71 W9        29.90R WCI  19
PINE RIDGE     CLOUDY    24  17  74 CALM      29.93S
SPEARFISH      FAIR      43  19  39 W9        29.88S
WINNER         FAIR      40  20  44 SW6       29.92R
$$

SDZ004>011-016>023-039-040-180200-
NORTHEAST SOUTH DAKOTA

CITY           SKY/WX    TMP DP  RH WIND       PRES   REMARKS
ABERDEEN       CLOUDY    17  12  80 S15       29.91F WCI   2
WATERTOWN      CLOUDY    17  14  88 S12       29.92S WCI   4
BROOKINGS      CLOUDY    24  21  88 S12       29.94F WCI  13
SISSETON         N/A     30  21  69 S7        29.89F WCI  23
$$

SDZ017-020-022-023-036>040-048>070-180200-
SOUTHEAST SOUTH DAKOTA

CITY           SKY/WX    TMP DP  RH WIND       PRES   REMARKS
SIOUX FALLS    CLOUDY    27  24  89 S8        29.99F WCI  19
HURON          CLOUDY    26  22  84 SE7       29.94S WCI  18
CHAMBERLAIN    CLOUDY    32  26  77 SE5       29.91S WCI  28
MITCHELL       CLOUDY    33  29  85 S13       29.96F WCI  24
YANKTON        CLOUDY    30  27  86 SE6       30.01F WCI  24
$$

ABBREVIATIONS USED IN REMARKS
   TC - TEMPERATURE IN CELSIUS
  WCI - WIND CHILL INDEX
   HX - HEAT INDEX
  VSB - VISIBILITY





USA.gov is the U.S. government's official web portal to all federal, state and local government web resources and services.